{"data":{"norad_id":29522,"epoch":"2026-09-19T22:08:20.454144Z","epoch_age_seconds":64303,"freshness":"FRESH","line1":"1 29522U 06050A   26262.92245896  .00000091  00000+0  69151-4 0  9999","line2":"2 29522  98.7427 267.5742 0010775 140.5114 219.6847 14.15008758 25821","mean_motion":14.15008758,"eccentricity":0.0010775,"inclination_deg":98.7427,"raan_deg":267.5742,"arg_perigee_deg":140.5114,"mean_anomaly_deg":219.6847,"bstar":6.9151e-5,"rev_number":2582,"period_min":101.76615458093,"perigee_km":834.50237030144,"apogee_km":850.06237404848,"semimajor_km":7220.419372175,"source":"CELESTRAK","updated_at":"2026-09-20T09:00:33.213062Z"}}